Location: Auckland
(36.8670°S, 174.7670°E)
Time: 08:09:06
(UTC+13:00)

MOS 1 - Pass Details

Date: 24 January 2019
Orbit: 878 x 891 km, 99.2° (Epoch: 19 February)

Event Time Altitude Azimuth Distance (km) Brightness Sun altitude
Rises 21:11:54 0° 166° (SSE) 3,537 7.7 -6.8°
Reaches altitude 10° 21:14:20 10° 164° (SSE) 2,590 6.9 -7.2°
Maximum altitude 21:20:07 82° 77° (ENE) 912 4.3 -8.2°
Drops below altitude 10° 21:25:50 10° 348° (NNW) 2,555 6.5 -9.2°
Sets 21:28:13 0° 347° (NNW) 3,486 7.2 -9.6°
